ANDOYA/ANDENES(AFB) current weather conditions

sailwx.info

Wind from 010 at 17 knots

Air temperature 3.0° C
Visibility: greater than 5.4 NM
Dewpoint -5.0° C
Present weather: Showers in the vicinity.

Last reported at 2016-Dec-05 15:20 UTC.
Time now 2016-Dec-05 16:41 UTC

Location: N 69°18' E 016°09'.
View on Google Maps.

See reports from other nearby stations

  
Tides and Currents Weather Stations Pressure Air Temp Water Temp Dewpoint Dewpoint Depression Visibility Wind Speed Wind Dir Waves Ship Positions
date/time (UTC)wind fromknots sea level pressurealtimeterstation pressurevisibilityair tempwater tempwave heightnotes
2016-Dec-05 15:20 010 17 5.4 3.0 Showers in the vicinity.
2016-Dec-05 14:50 020 15 5.4 2.0 Showers in the vicinity.
2016-Dec-05 14:20 030 14 5.4 2.0 Showers in the vicinity.
2016-Dec-05 13:50 010 14 5.4 2.0
2016-Dec-05 13:20 360 15 5.4 2.0
2016-Dec-05 12:50 010 18 5.4 3.0 Showers in the vicinity.
2016-Dec-05 12:20 010 15 5.4 3.0 Showers in the vicinity.
2016-Dec-05 11:50 010 17 5.4 2.0
2016-Dec-05 11:20 360 15 5.4 2.0 Light drizzle.
2016-Dec-05 10:50 010 15 5.4 2.0 Showers in the vicinity.
2016-Dec-05 10:20 360 15 5.4 2.0 Showers in the vicinity.
2016-Dec-05 09:50 360 20 5.4 2.0 Showers in the vicinity.
2016-Dec-05 09:20 360 15 5.4 2.0 Light rain.
2016-Dec-05 08:50 360 19 5.4 2.0 Showers in the vicinity.
2016-Dec-05 08:20 330 20 4.3 2.0 Light rain.
2016-Dec-05 07:50 360 18 5.4 3.0 Light drizzle.
2016-Dec-05 07:20 340 19 5.4 3.0
2016-Dec-05 06:50 360 19 5.4 3.0
2016-Dec-05 06:20 350 20 5.4 2.0 Light rain.
2016-Dec-05 05:50 350 18 5.4 3.0 Light rain.
2016-Dec-05 05:20 360 19 5.4 3.0 Rain showers.
2016-Dec-05 04:50 360 18 5.4 3.0
2016-Dec-05 04:20 360 19 5.4 3.0
2016-Dec-05 03:50 350 18 5.4 2.0
2016-Dec-05 03:20 350 20 gusting 29 5.4 3.0 Precipitation.
2016-Dec-05 02:50 360 20 gusting 29 5.4 3.0
2016-Dec-05 02:20 350 20 5.4 2.0
2016-Dec-05 01:50 340 20 gusting 31 5.4 2.0 Light drizzle.
2016-Dec-05 01:20 350 20 5.4 2.0
2016-Dec-05 00:50 340 24 5.4 2.0
2016-Dec-05 00:20 350 19 gusting 31 5.4 2.0
2016-Dec-04 23:50 340 21 5.4 3.0
2016-Dec-04 23:20 340 19 gusting 28 5.4 3.0 Light drizzle.
2016-Dec-04 22:50 340 19 5.4 3.0
2016-Dec-04 22:20 320 19 5.4 3.0
2016-Dec-04 21:50 340 18 5.4 3.0
2016-Dec-04 21:20 350 17 5.4 3.0
2016-Dec-04 20:50 340 20 5.4 3.0
2016-Dec-04 20:20 340 20 5.4 3.0
2016-Dec-04 19:50 350 18 5.4 3.0
2016-Dec-04 19:20 360 17 5.4 3.0 Light rain showers.
2016-Dec-04 18:50 340 17 5.4 3.0 Light rain showers.
2016-Dec-04 18:20 310 15 4.9 3.0 Light rain showers.
2016-Dec-04 17:50 260 17 3.2 3.0 Light rain.
2016-Dec-04 17:20 250 19 gusting 28 5.4 4.0 Light rain.
2016-Dec-04 16:50 260 19 gusting 29 5.4 4.0
2016-Dec-04 16:20 250 17 gusting 28 5.4 3.0 Light drizzle.
2016-Dec-04 15:50 250 20 5.4 4.0
2016-Dec-04 15:20 260 20 gusting 31 5.4 4.0
2016-Dec-04 14:50 260 19 5.4 4.0
2016-Dec-04 14:20 270 21 5.4 4.0 Drizzle.
2016-Dec-04 13:50 260 20 5.4 4.0
2016-Dec-04 13:20 260 21 5.4 4.0
2016-Dec-04 12:50 280 20 5.4 4.0
2016-Dec-04 12:20 280 19 5.4 4.0
2016-Dec-04 11:50 280 18 5.4 4.0
2016-Dec-04 11:20 270 19 5.4 4.0
2016-Dec-04 10:50 280 18 5.4 4.0
2016-Dec-04 10:20 280 17 5.4 4.0
2016-Dec-04 09:50 280 15 5.4 4.0
2016-Dec-04 09:20 290 18 5.4 4.0
2016-Dec-04 08:50 290 20 5.4 4.0
2016-Dec-04 08:20 290 19 5.4 4.0 Drizzle.
2016-Dec-04 07:50 290 20 5.4 4.0
2016-Dec-04 07:20 290 19 5.4 4.0
2016-Dec-04 06:50 290 21 5.4 3.0 Light rain.
2016-Dec-04 06:20 290 22 5.4 3.0
2016-Dec-04 05:50 290 24 5.4 3.0
2016-Dec-04 05:20 280 24 5.4 4.0
2016-Dec-04 04:50 240 18 gusting 28 5.4 3.0
2016-Dec-04 04:20 210 11 5.4 1.0 Precipitation.
2016-Dec-04 03:50 200 15 4.9-0.0 Light rain.
2016-Dec-04 03:20 190 17 0.4-0.0 Light snow.
2016-Dec-04 02:50 190 19 0.5-0.0 Light snow.
2016-Dec-04 02:20 190 20 0.5-0.0 Light snow.
2016-Dec-04 01:50 190 22 0.3-1.0 Snow.
2016-Dec-04 01:20 180 25 0.4-1.0 Snow.
2016-Dec-04 00:50 180 25 0.5-1.0 Light snow.
2016-Dec-04 00:20 180 27 0.5-2.0 Light snow.
2016-Dec-03 23:50 180 25 0.5-2.0 Light snow.
2016-Dec-03 23:20 180 24 0.4-2.0 Snow.
2016-Dec-03 22:50 180 27 0.3-2.0 Snow.
2016-Dec-03 22:20 180 26 0.2-2.0 Heavy snow.
2016-Dec-03 21:50 180 26 0.3-2.0 Light snow.
2016-Dec-03 21:20 170 25 2.7-0.0 Light snow.
2016-Dec-03 20:50 180 20 5.4-0.0
2016-Dec-03 20:20 190 19 5.4-0.0
2016-Dec-03 19:50 180 17 5.4-0.0
2016-Dec-03 19:20 150 20 5.4-0.0
2016-Dec-03 18:50 150 21 5.4-0.0
2016-Dec-03 18:20 150 17 5.4-0.0
2016-Dec-03 17:50 150 17 5.4-1.0
2016-Dec-03 17:20 150 14 5.4-1.0
2016-Dec-03 16:50 180 11 5.4-2.0
2016-Dec-03 16:20 180 12 5.4-2.0